Year,Month,Day,Hour,Minute,Value (Times are PST for temperature in C)
2013,01,29,00,00,6.40
2013,01,29,00,01,6.40
2013,01,29,00,02,6.40
2013,01,29,00,03,6.40
2013,01,29,00,04,6.40
2013,01,29,00,05,6.40
2013,01,29,00,06,6.40
2013,01,29,00,07,6.40
2013,01,29,00,08,6.40
2013,01,29,00,09,6.40
2013,01,29,00,10,6.40
2013,01,29,00,11,6.40
2013,01,29,00,12,6.40
2013,01,29,00,13,6.40
2013,01,29,00,14,6.40
2013,01,29,00,15,6.40
2013,01,29,00,16,6.40
2013,01,29,00,17,6.40
2013,01,29,00,18,6.40
2013,01,29,00,19,6.40
2013,01,29,00,20,6.60
2013,01,29,00,21,6.60
2013,01,29,00,22,6.60
2013,01,29,00,23,6.60
2013,01,29,00,24,6.60
2013,01,29,00,25,6.60
2013,01,29,00,26,6.60
2013,01,29,00,27,6.60
2013,01,29,00,28,6.60
2013,01,29,00,29,6.60
2013,01,29,00,30,6.60
2013,01,29,00,31,6.60
2013,01,29,00,32,6.60
2013,01,29,00,33,6.60
2013,01,29,00,34,6.60
2013,01,29,00,35,6.60
2013,01,29,00,36,6.60
2013,01,29,00,37,6.60
2013,01,29,00,38,6.60
2013,01,29,00,39,6.60
2013,01,29,00,40,6.60
2013,01,29,00,41,6.60
2013,01,29,00,42,6.60
2013,01,29,00,43,6.60
2013,01,29,00,44,6.60
2013,01,29,00,45,6.60
2013,01,29,00,46,6.60
2013,01,29,00,47,6.60
2013,01,29,00,48,6.60
2013,01,29,00,49,6.60
2013,01,29,00,50,6.60
2013,01,29,00,51,6.60
2013,01,29,00,52,6.60
2013,01,29,00,53,6.60
2013,01,29,00,54,6.60
2013,01,29,00,55,6.60
2013,01,29,00,56,6.60
2013,01,29,00,57,6.60
2013,01,29,00,58,6.60
2013,01,29,00,59,6.60
2013,01,29,01,00,6.60
2013,01,29,01,01,6.60
2013,01,29,01,02,6.60
2013,01,29,01,03,6.60
2013,01,29,01,04,6.60
2013,01,29,01,05,6.60
2013,01,29,01,06,6.60
2013,01,29,01,07,6.60
2013,01,29,01,08,6.60
2013,01,29,01,09,6.60
2013,01,29,01,10,6.60
2013,01,29,01,11,6.60
2013,01,29,01,12,6.60
2013,01,29,01,13,6.60
2013,01,29,01,14,6.60
2013,01,29,01,15,6.60
2013,01,29,01,16,6.60
2013,01,29,01,17,6.60
2013,01,29,01,18,6.60
2013,01,29,01,19,6.60
2013,01,29,01,20,6.60
2013,01,29,01,21,6.60
2013,01,29,01,22,6.60
2013,01,29,01,23,6.60
2013,01,29,01,24,6.60
2013,01,29,01,25,6.60
2013,01,29,01,26,6.60
2013,01,29,01,27,6.60
2013,01,29,01,28,6.70
2013,01,29,01,29,6.70
2013,01,29,01,30,6.70
2013,01,29,01,31,6.70
2013,01,29,01,32,6.70
2013,01,29,01,33,6.70
2013,01,29,01,34,6.70
2013,01,29,01,35,6.70
2013,01,29,01,36,6.70
2013,01,29,01,37,6.70
2013,01,29,01,38,6.70
2013,01,29,01,39,6.70
2013,01,29,01,40,6.70
2013,01,29,01,41,6.70
2013,01,29,01,42,6.70
2013,01,29,01,43,6.70
2013,01,29,01,44,6.70
2013,01,29,01,45,6.70
2013,01,29,01,46,6.70
2013,01,29,01,47,6.70
2013,01,29,01,48,6.70
2013,01,29,01,49,6.70
2013,01,29,01,50,6.70
2013,01,29,01,51,6.70
2013,01,29,01,52,6.70
2013,01,29,01,53,6.70
2013,01,29,01,54,6.70
2013,01,29,01,55,6.70
2013,01,29,01,56,6.70
2013,01,29,01,57,6.70
2013,01,29,01,58,6.80
2013,01,29,01,59,6.80
2013,01,29,02,00,6.80
2013,01,29,02,01,6.80
2013,01,29,02,02,6.80
2013,01,29,02,03,6.80
2013,01,29,02,04,6.80
2013,01,29,02,05,6.80
2013,01,29,02,06,6.80
2013,01,29,02,07,6.80
2013,01,29,02,08,6.80
2013,01,29,02,09,6.80
2013,01,29,02,10,6.80
2013,01,29,02,11,6.80
2013,01,29,02,12,6.80
2013,01,29,02,13,6.80
2013,01,29,02,14,6.80
2013,01,29,02,15,6.80
2013,01,29,02,16,6.80
2013,01,29,02,17,6.80
2013,01,29,02,18,6.80
2013,01,29,02,19,6.80
2013,01,29,02,20,6.80
2013,01,29,02,21,6.80
2013,01,29,02,22,6.80
2013,01,29,02,23,6.80
2013,01,29,02,24,6.80
2013,01,29,02,25,6.80
2013,01,29,02,26,6.90
2013,01,29,02,27,6.90
2013,01,29,02,28,6.90
2013,01,29,02,29,6.90
2013,01,29,02,30,6.90
2013,01,29,02,31,6.90
2013,01,29,02,32,6.90
2013,01,29,02,33,6.90
2013,01,29,02,34,6.90
2013,01,29,02,35,6.90
2013,01,29,02,36,6.90
2013,01,29,02,37,6.90
2013,01,29,02,38,6.90
2013,01,29,02,39,6.90
2013,01,29,02,40,6.90
2013,01,29,02,41,6.90
2013,01,29,02,42,6.90
2013,01,29,02,43,6.90
2013,01,29,02,44,6.90
2013,01,29,02,45,6.90
2013,01,29,02,46,6.90
2013,01,29,02,47,6.90
2013,01,29,02,48,6.90
2013,01,29,02,49,6.90
2013,01,29,02,50,6.90
2013,01,29,02,51,6.90
2013,01,29,02,52,6.90
2013,01,29,02,53,6.90
2013,01,29,02,54,6.90
2013,01,29,02,55,6.90
2013,01,29,02,56,6.90
2013,01,29,02,57,6.90
2013,01,29,02,58,6.90
2013,01,29,02,59,6.90
2013,01,29,03,00,6.90
2013,01,29,03,01,6.90
2013,01,29,03,02,7.00
2013,01,29,03,03,7.00
2013,01,29,03,04,7.00
2013,01,29,03,05,7.00
2013,01,29,03,06,7.00
2013,01,29,03,07,7.00
2013,01,29,03,08,7.00
2013,01,29,03,09,7.00
2013,01,29,03,10,7.00
2013,01,29,03,11,7.00
2013,01,29,03,12,7.00
2013,01,29,03,13,7.00
2013,01,29,03,14,7.00
2013,01,29,03,15,7.00
2013,01,29,03,16,7.00
2013,01,29,03,17,7.00
2013,01,29,03,18,7.10
2013,01,29,03,19,7.10
2013,01,29,03,20,7.10
2013,01,29,03,21,7.10
2013,01,29,03,22,7.10
2013,01,29,03,23,7.10
2013,01,29,03,24,7.10
2013,01,29,03,25,7.10
2013,01,29,03,26,7.10
2013,01,29,03,27,7.10
2013,01,29,03,28,7.10
2013,01,29,03,29,7.10
2013,01,29,03,30,7.10
2013,01,29,03,31,7.20
2013,01,29,03,32,7.20
2013,01,29,03,33,7.20
2013,01,29,03,34,7.20
2013,01,29,03,35,7.20
2013,01,29,03,36,7.20
2013,01,29,03,37,7.20
2013,01,29,03,38,7.20
2013,01,29,03,39,7.20
2013,01,29,03,40,7.20
2013,01,29,03,41,7.20
2013,01,29,03,42,7.20
2013,01,29,03,43,7.20
2013,01,29,03,44,7.20
2013,01,29,03,45,7.20
2013,01,29,03,46,7.20
2013,01,29,03,47,7.20
2013,01,29,03,48,7.20
2013,01,29,03,49,7.20
2013,01,29,03,50,7.20
2013,01,29,03,51,7.20
2013,01,29,03,52,7.20
2013,01,29,03,53,7.20
2013,01,29,03,54,7.20
2013,01,29,03,55,7.20
2013,01,29,03,56,7.20
2013,01,29,03,57,7.20
2013,01,29,03,58,7.20
2013,01,29,03,59,7.20
2013,01,29,04,00,7.30
2013,01,29,04,01,7.30
2013,01,29,04,02,7.30
2013,01,29,04,03,7.30
2013,01,29,04,04,7.30
2013,01,29,04,05,7.30
2013,01,29,04,06,7.30
2013,01,29,04,07,7.30
2013,01,29,04,08,7.30
2013,01,29,04,09,7.30
2013,01,29,04,10,7.30
2013,01,29,04,11,7.30
2013,01,29,04,12,7.30
2013,01,29,04,13,7.30
2013,01,29,04,14,7.30
2013,01,29,04,15,7.30
2013,01,29,04,16,7.30
2013,01,29,04,17,7.30
2013,01,29,04,18,7.30
2013,01,29,04,19,7.30
2013,01,29,04,20,7.30
2013,01,29,04,21,7.30
2013,01,29,04,22,7.30
2013,01,29,04,23,7.30
2013,01,29,04,24,7.40
2013,01,29,04,25,7.40
2013,01,29,04,26,7.40
2013,01,29,04,27,7.40
2013,01,29,04,28,7.40
2013,01,29,04,29,7.40
2013,01,29,04,30,7.40
2013,01,29,04,31,7.40
2013,01,29,04,32,7.40
2013,01,29,04,33,7.40
2013,01,29,04,34,7.40
2013,01,29,04,35,7.40
2013,01,29,04,36,7.40
2013,01,29,04,37,7.40
2013,01,29,04,38,7.40
2013,01,29,04,39,7.40
2013,01,29,04,40,7.40
2013,01,29,04,41,7.40
2013,01,29,04,42,7.40
2013,01,29,04,43,7.40
2013,01,29,04,44,7.40
2013,01,29,04,45,7.40
2013,01,29,04,46,7.40
2013,01,29,04,47,7.50
2013,01,29,04,48,7.50
2013,01,29,04,49,7.50
2013,01,29,04,50,7.50
2013,01,29,04,51,7.50
2013,01,29,04,52,7.50
2013,01,29,04,53,7.50
2013,01,29,04,54,7.50
2013,01,29,04,55,7.50
2013,01,29,04,56,7.50
2013,01,29,04,57,7.50
2013,01,29,04,58,7.50
2013,01,29,04,59,7.50
2013,01,29,05,00,7.50
2013,01,29,05,01,7.50
2013,01,29,05,02,7.50
2013,01,29,05,03,7.50
2013,01,29,05,04,7.50
2013,01,29,05,05,7.50
2013,01,29,05,06,7.50
2013,01,29,05,07,7.50
2013,01,29,05,08,7.50
2013,01,29,05,09,7.50
2013,01,29,05,10,7.50
2013,01,29,05,11,7.50
2013,01,29,05,12,7.50
2013,01,29,05,13,7.50
2013,01,29,05,14,7.50
2013,01,29,05,15,7.50
2013,01,29,05,16,7.50
2013,01,29,05,17,7.50
2013,01,29,05,18,7.50
2013,01,29,05,19,7.50
2013,01,29,05,20,7.50
2013,01,29,05,21,7.50
2013,01,29,05,22,7.50
2013,01,29,05,23,7.50
2013,01,29,05,24,7.50
2013,01,29,05,25,7.40
2013,01,29,05,26,7.40
2013,01,29,05,27,7.40
2013,01,29,05,28,7.30
2013,01,29,05,29,7.30
2013,01,29,05,30,7.30
2013,01,29,05,31,7.20
2013,01,29,05,32,7.20
2013,01,29,05,33,7.10
2013,01,29,05,34,7.00
2013,01,29,05,35,7.00
2013,01,29,05,36,6.90
2013,01,29,05,37,6.80
2013,01,29,05,38,6.80
2013,01,29,05,39,6.70
2013,01,29,05,40,6.60
2013,01,29,05,41,6.60
2013,01,29,05,42,6.60
2013,01,29,05,43,6.50
2013,01,29,05,44,6.40
2013,01,29,05,45,6.40
2013,01,29,05,46,6.40
2013,01,29,05,47,6.40
2013,01,29,05,48,6.40
2013,01,29,05,49,6.30
2013,01,29,05,50,6.30
2013,01,29,05,51,6.30
2013,01,29,05,52,6.30
2013,01,29,05,53,6.20
2013,01,29,05,54,6.20
2013,01,29,05,55,6.20
2013,01,29,05,56,6.20
2013,01,29,05,57,6.20
2013,01,29,05,58,6.20
2013,01,29,05,59,6.20
2013,01,29,06,00,6.10
2013,01,29,06,01,6.10
2013,01,29,06,02,6.10
2013,01,29,06,03,6.10
2013,01,29,06,04,6.10
2013,01,29,06,05,6.10
2013,01,29,06,06,6.00
2013,01,29,06,07,6.00
2013,01,29,06,08,6.00
2013,01,29,06,09,6.00
2013,01,29,06,10,6.00
2013,01,29,06,11,6.00
2013,01,29,06,12,6.00
2013,01,29,06,13,5.90
2013,01,29,06,14,5.90
2013,01,29,06,15,5.90
2013,01,29,06,16,5.90
2013,01,29,06,17,5.90
2013,01,29,06,18,5.90
2013,01,29,06,19,5.90
2013,01,29,06,20,5.80
2013,01,29,06,21,5.80
2013,01,29,06,22,5.80
2013,01,29,06,23,5.80
2013,01,29,06,24,5.80
2013,01,29,06,25,5.80
2013,01,29,06,26,5.80
2013,01,29,06,27,5.80
2013,01,29,06,28,5.70
2013,01,29,06,29,5.70
2013,01,29,06,30,5.70
2013,01,29,06,31,5.70
2013,01,29,06,32,5.70
2013,01,29,06,33,5.70
2013,01,29,06,34,5.70
2013,01,29,06,35,5.70
2013,01,29,06,36,5.70
2013,01,29,06,37,5.60
2013,01,29,06,38,5.60
2013,01,29,06,39,5.60
2013,01,29,06,40,5.60
2013,01,29,06,41,5.60
2013,01,29,06,42,5.50
2013,01,29,06,43,5.50
2013,01,29,06,44,5.50
2013,01,29,06,45,5.50
2013,01,29,06,46,5.50
2013,01,29,06,47,5.50
2013,01,29,06,48,5.40
2013,01,29,06,49,5.40
2013,01,29,06,50,5.40
2013,01,29,06,51,5.40
2013,01,29,06,52,5.40
2013,01,29,06,53,5.40
2013,01,29,06,54,5.30
2013,01,29,06,55,5.30
2013,01,29,06,56,5.30
2013,01,29,06,57,5.30
2013,01,29,06,58,5.30
2013,01,29,06,59,5.30
2013,01,29,07,00,5.30
2013,01,29,07,01,5.30
2013,01,29,07,02,5.30
2013,01,29,07,03,5.30
2013,01,29,07,04,5.30
2013,01,29,07,05,5.30
2013,01,29,07,06,5.30
2013,01,29,07,07,5.30
2013,01,29,07,08,5.30
2013,01,29,07,09,5.30
2013,01,29,07,10,5.30
2013,01,29,07,11,5.30
2013,01,29,07,12,5.20
2013,01,29,07,13,5.20
2013,01,29,07,14,5.20
2013,01,29,07,15,5.20
2013,01,29,07,16,5.20
2013,01,29,07,17,5.20
2013,01,29,07,18,5.20
2013,01,29,07,19,5.20
2013,01,29,07,20,5.20
2013,01,29,07,21,5.10
2013,01,29,07,22,5.10
2013,01,29,07,23,5.10
2013,01,29,07,24,5.10
2013,01,29,07,25,5.10
2013,01,29,07,26,5.10
2013,01,29,07,27,5.10
2013,01,29,07,28,5.10
2013,01,29,07,29,5.10
2013,01,29,07,30,5.10
2013,01,29,07,31,5.10
2013,01,29,07,32,5.10
2013,01,29,07,33,5.10
2013,01,29,07,34,5.10
2013,01,29,07,35,5.10
2013,01,29,07,36,5.10
2013,01,29,07,37,5.10
2013,01,29,07,38,5.10
2013,01,29,07,39,5.10
2013,01,29,07,40,5.10
2013,01,29,07,41,5.10
2013,01,29,07,42,5.10
2013,01,29,07,43,5.10
2013,01,29,07,44,5.10
2013,01,29,07,45,5.10
2013,01,29,07,46,5.10
2013,01,29,07,47,5.10
2013,01,29,07,48,5.10
2013,01,29,07,49,5.10
2013,01,29,07,50,5.10
2013,01,29,07,51,5.10
2013,01,29,07,52,5.10
2013,01,29,07,53,5.10
2013,01,29,07,54,5.10
2013,01,29,07,55,5.10
2013,01,29,07,56,5.00
2013,01,29,07,57,4.90
2013,01,29,07,58,4.90
2013,01,29,07,59,4.90
2013,01,29,08,00,5.00
2013,01,29,08,01,5.10
2013,01,29,08,02,5.00
2013,01,29,08,03,4.90
2013,01,29,08,04,4.90
2013,01,29,08,05,4.90
2013,01,29,08,06,4.90
2013,01,29,08,07,4.90
2013,01,29,08,08,4.90
2013,01,29,08,09,4.90
2013,01,29,08,10,4.90
2013,01,29,08,11,4.90
2013,01,29,08,12,4.90
2013,01,29,08,13,4.90
2013,01,29,08,14,4.90
2013,01,29,08,15,4.90
2013,01,29,08,16,4.90
2013,01,29,08,17,4.90
2013,01,29,08,18,4.90
2013,01,29,08,19,4.90
2013,01,29,08,20,4.90
2013,01,29,08,21,4.80
2013,01,29,08,22,4.80
2013,01,29,08,23,4.80
2013,01,29,08,24,4.80
2013,01,29,08,25,4.80
2013,01,29,08,26,4.80
2013,01,29,08,27,4.80
2013,01,29,08,28,4.80
2013,01,29,08,29,4.80
2013,01,29,08,30,4.80
2013,01,29,08,31,4.80
2013,01,29,08,32,4.80
2013,01,29,08,33,4.80
2013,01,29,08,34,4.80
2013,01,29,08,35,4.80
2013,01,29,08,36,4.80
2013,01,29,08,37,4.80
2013,01,29,08,38,4.80
2013,01,29,08,39,4.80
2013,01,29,08,40,4.80
2013,01,29,08,41,4.80
2013,01,29,08,42,4.80
2013,01,29,08,43,4.80
2013,01,29,08,44,4.80
2013,01,29,08,45,4.80
2013,01,29,08,46,4.80
2013,01,29,08,47,4.80
2013,01,29,08,48,4.80
2013,01,29,08,49,4.80
2013,01,29,08,50,4.80
2013,01,29,08,51,4.80
2013,01,29,08,52,4.80
2013,01,29,08,53,4.80
2013,01,29,08,54,4.80
2013,01,29,08,55,4.90
2013,01,29,08,56,4.90
2013,01,29,08,57,4.90
2013,01,29,08,58,4.90
2013,01,29,08,59,4.90
2013,01,29,09,00,4.90
2013,01,29,09,01,4.90
2013,01,29,09,02,4.90
2013,01,29,09,03,4.90
2013,01,29,09,04,4.90
2013,01,29,09,05,4.90
2013,01,29,09,06,4.90
2013,01,29,09,07,4.90
2013,01,29,09,08,4.90
2013,01,29,09,09,4.90
2013,01,29,09,10,4.90
2013,01,29,09,11,4.90
2013,01,29,09,12,4.90
2013,01,29,09,13,4.90
2013,01,29,09,14,4.90
2013,01,29,09,15,4.90
2013,01,29,09,16,4.90
2013,01,29,09,17,4.90
2013,01,29,09,18,4.90
2013,01,29,09,19,4.90
2013,01,29,09,20,4.90
2013,01,29,09,21,4.90
2013,01,29,09,22,4.90
2013,01,29,09,23,4.90
2013,01,29,09,24,4.90
2013,01,29,09,25,4.90
2013,01,29,09,26,4.90
2013,01,29,09,27,4.90
2013,01,29,09,28,4.90
2013,01,29,09,29,5.00
2013,01,29,09,30,5.10
2013,01,29,09,31,5.10
2013,01,29,09,32,5.10
2013,01,29,09,33,5.10
2013,01,29,09,34,5.10
2013,01,29,09,35,5.10
2013,01,29,09,36,5.10
2013,01,29,09,37,5.10
2013,01,29,09,38,5.10
2013,01,29,09,39,5.10
2013,01,29,09,40,5.10
2013,01,29,09,41,5.10
2013,01,29,09,42,5.10
2013,01,29,09,43,5.10
2013,01,29,09,44,5.10
2013,01,29,09,45,5.10
2013,01,29,09,46,5.10
2013,01,29,09,47,5.10
2013,01,29,09,48,5.10
2013,01,29,09,49,5.20
2013,01,29,09,50,5.20
2013,01,29,09,51,5.20
2013,01,29,09,52,5.20
2013,01,29,09,53,5.20
2013,01,29,09,54,5.20
2013,01,29,09,55,5.20
2013,01,29,09,56,5.20
2013,01,29,09,57,5.20
2013,01,29,09,58,5.20
2013,01,29,09,59,5.20
2013,01,29,10,00,5.20
2013,01,29,10,01,5.20
2013,01,29,10,02,5.30
2013,01,29,10,03,5.30
2013,01,29,10,04,5.30
2013,01,29,10,05,5.30
2013,01,29,10,06,5.30
2013,01,29,10,07,5.30
2013,01,29,10,08,5.30
2013,01,29,10,09,5.30
2013,01,29,10,10,5.30
2013,01,29,10,11,5.30
2013,01,29,10,12,5.30
2013,01,29,10,13,5.30
2013,01,29,10,14,5.30
2013,01,29,10,15,5.30
2013,01,29,10,16,5.30
2013,01,29,10,17,5.30
2013,01,29,10,18,5.30
2013,01,29,10,19,5.30
2013,01,29,10,20,5.30
2013,01,29,10,21,5.30
2013,01,29,10,22,5.30
2013,01,29,10,23,5.30
2013,01,29,10,24,5.30
2013,01,29,10,25,5.30
2013,01,29,10,26,5.30
2013,01,29,10,27,5.30
2013,01,29,10,28,5.30
2013,01,29,10,29,5.40
2013,01,29,10,30,5.40
2013,01,29,10,31,5.40
2013,01,29,10,32,5.40
2013,01,29,10,33,5.40
2013,01,29,10,34,5.40
2013,01,29,10,35,5.40
2013,01,29,10,36,5.40
2013,01,29,10,37,5.40
2013,01,29,10,38,5.40
2013,01,29,10,39,5.50
2013,01,29,10,40,5.50
2013,01,29,10,41,5.50
2013,01,29,10,42,5.50
2013,01,29,10,43,5.50
2013,01,29,10,44,5.50
2013,01,29,10,45,5.50
2013,01,29,10,46,5.50
2013,01,29,10,47,5.50
2013,01,29,10,48,5.50
2013,01,29,10,49,5.50
2013,01,29,10,50,5.60
2013,01,29,10,51,5.60
2013,01,29,10,52,5.60
2013,01,29,10,53,5.60
2013,01,29,10,54,5.60
2013,01,29,10,55,5.60
2013,01,29,10,56,5.60
2013,01,29,10,57,5.60
2013,01,29,10,58,5.70
2013,01,29,10,59,5.70
2013,01,29,11,00,5.70
2013,01,29,11,01,5.70
2013,01,29,11,02,5.70
2013,01,29,11,03,5.70
2013,01,29,11,04,5.70
2013,01,29,11,05,5.70
2013,01,29,11,06,5.70
2013,01,29,11,07,5.70
2013,01,29,11,08,5.80
2013,01,29,11,09,5.80
2013,01,29,11,10,5.80
2013,01,29,11,11,5.80
2013,01,29,11,12,5.80
2013,01,29,11,13,5.80
2013,01,29,11,14,5.80
2013,01,29,11,15,5.80
2013,01,29,11,16,5.80
2013,01,29,11,17,5.80
2013,01,29,11,18,5.80
2013,01,29,11,19,5.80
2013,01,29,11,20,5.80
2013,01,29,11,21,5.90
2013,01,29,11,22,5.90
2013,01,29,11,23,5.90
2013,01,29,11,24,5.90
2013,01,29,11,25,6.00
2013,01,29,11,26,6.00
2013,01,29,11,27,6.00
2013,01,29,11,28,6.00
2013,01,29,11,29,6.00
2013,01,29,11,30,6.10
2013,01,29,11,31,6.10
2013,01,29,11,32,6.10
2013,01,29,11,33,6.10
2013,01,29,11,34,6.10
2013,01,29,11,35,6.10
2013,01,29,11,36,6.10
2013,01,29,11,37,6.10
2013,01,29,11,38,6.10
2013,01,29,11,39,6.20
2013,01,29,11,40,6.20
2013,01,29,11,41,6.20
2013,01,29,11,42,6.20
2013,01,29,11,43,6.20
2013,01,29,11,44,6.20
2013,01,29,11,45,6.30
2013,01,29,11,46,6.30
2013,01,29,11,47,6.30
2013,01,29,11,48,6.30
2013,01,29,11,49,6.30
2013,01,29,11,50,6.40
2013,01,29,11,51,6.40
2013,01,29,11,52,6.40
2013,01,29,11,53,6.40
2013,01,29,11,54,6.40
2013,01,29,11,55,6.40
2013,01,29,11,56,6.40
2013,01,29,11,57,6.40
2013,01,29,11,58,6.40
2013,01,29,11,59,6.50
2013,01,29,12,00,6.60
2013,01,29,12,01,6.60
2013,01,29,12,02,6.60
2013,01,29,12,03,6.60
2013,01,29,12,04,6.60
2013,01,29,12,05,6.60
2013,01,29,12,06,6.60
2013,01,29,12,07,6.60
2013,01,29,12,08,6.60
2013,01,29,12,09,6.60
2013,01,29,12,10,6.70
2013,01,29,12,11,6.70
2013,01,29,12,12,6.70
2013,01,29,12,13,6.70
2013,01,29,12,14,6.80
2013,01,29,12,15,6.80
2013,01,29,12,16,6.90
2013,01,29,12,17,7.00
2013,01,29,12,18,7.00
2013,01,29,12,19,7.00
2013,01,29,12,20,7.10
2013,01,29,12,21,7.20
2013,01,29,12,22,7.20
2013,01,29,12,23,7.20
2013,01,29,12,24,7.30
2013,01,29,12,25,7.30
2013,01,29,12,26,7.30
2013,01,29,12,27,7.40
2013,01,29,12,28,7.50
2013,01,29,12,29,7.50
2013,01,29,12,30,7.60
2013,01,29,12,31,7.60
2013,01,29,12,32,7.60
2013,01,29,12,33,7.70
2013,01,29,12,34,7.70
2013,01,29,12,35,7.80
2013,01,29,12,36,7.80
2013,01,29,12,37,7.80
2013,01,29,12,38,7.80
2013,01,29,12,39,7.80
2013,01,29,12,40,7.80
2013,01,29,12,41,7.90
2013,01,29,12,42,7.90
2013,01,29,12,43,7.90
2013,01,29,12,44,7.90
2013,01,29,12,45,7.90
2013,01,29,12,46,7.90
2013,01,29,12,47,7.90
2013,01,29,12,48,8.00
2013,01,29,12,49,8.00
2013,01,29,12,50,8.00
2013,01,29,12,51,8.00
2013,01,29,12,52,8.00
2013,01,29,12,53,8.00
2013,01,29,12,54,8.00
2013,01,29,12,55,8.00
2013,01,29,12,56,8.00
2013,01,29,12,57,8.10
2013,01,29,12,58,8.10
2013,01,29,12,59,8.10
2013,01,29,13,00,8.20
2013,01,29,13,01,8.20
2013,01,29,13,02,8.20
2013,01,29,13,03,8.20
2013,01,29,13,04,8.20
2013,01,29,13,05,8.20
2013,01,29,13,06,8.20
2013,01,29,13,07,8.20
2013,01,29,13,08,8.20
2013,01,29,13,09,8.20
2013,01,29,13,10,8.20
2013,01,29,13,11,8.20
2013,01,29,13,12,8.20
2013,01,29,13,13,8.30
2013,01,29,13,14,8.30
2013,01,29,13,15,8.30
2013,01,29,13,16,8.30
2013,01,29,13,17,8.30
2013,01,29,13,18,8.30
2013,01,29,13,19,8.30
2013,01,29,13,20,8.30
2013,01,29,13,21,8.30
2013,01,29,13,22,8.30
2013,01,29,13,23,8.40
2013,01,29,13,24,8.40
2013,01,29,13,25,8.40
2013,01,29,13,26,8.40
2013,01,29,13,27,8.40
2013,01,29,13,28,8.40
2013,01,29,13,29,8.40
2013,01,29,13,30,8.40
2013,01,29,13,31,8.40
2013,01,29,13,32,8.40
2013,01,29,13,33,8.40
2013,01,29,13,34,8.40
2013,01,29,13,35,8.40
2013,01,29,13,36,8.40
2013,01,29,13,37,8.50
2013,01,29,13,38,8.50
2013,01,29,13,39,8.50
2013,01,29,13,40,8.50
2013,01,29,13,41,8.50
2013,01,29,13,42,8.50
2013,01,29,13,43,8.50
2013,01,29,13,44,8.50
2013,01,29,13,45,8.50
2013,01,29,13,46,8.50
2013,01,29,13,47,8.50
2013,01,29,13,48,8.50
2013,01,29,13,49,8.50
2013,01,29,13,50,8.50
2013,01,29,13,51,8.50
2013,01,29,13,52,8.50
2013,01,29,13,53,8.50
2013,01,29,13,54,8.40
2013,01,29,13,55,8.40
2013,01,29,13,56,8.40
2013,01,29,13,57,8.40
2013,01,29,13,58,8.40
2013,01,29,13,59,8.40
2013,01,29,14,00,8.40
2013,01,29,14,01,8.40
2013,01,29,14,02,8.40
2013,01,29,14,03,8.40
2013,01,29,14,04,8.40
2013,01,29,14,05,8.40
2013,01,29,14,06,8.40
2013,01,29,14,07,8.30
2013,01,29,14,08,8.30
2013,01,29,14,09,8.30
2013,01,29,14,10,8.30
2013,01,29,14,11,8.30
2013,01,29,14,12,8.40
2013,01,29,14,13,8.40
2013,01,29,14,14,8.40
2013,01,29,14,15,8.30
2013,01,29,14,16,8.30
2013,01,29,14,17,8.30
2013,01,29,14,18,8.30
2013,01,29,14,19,8.30
2013,01,29,14,20,8.30
2013,01,29,14,21,8.30
2013,01,29,14,22,8.30
2013,01,29,14,23,8.30
2013,01,29,14,24,8.30
2013,01,29,14,25,8.30
2013,01,29,14,26,8.30
2013,01,29,14,27,8.20
2013,01,29,14,28,8.20
2013,01,29,14,29,8.20
2013,01,29,14,30,8.20
2013,01,29,14,31,8.20
2013,01,29,14,32,8.20
2013,01,29,14,33,8.20
2013,01,29,14,34,8.20
2013,01,29,14,35,8.20
2013,01,29,14,36,8.20
2013,01,29,14,37,8.10
2013,01,29,14,38,8.10
2013,01,29,14,39,8.10
2013,01,29,14,40,8.10
2013,01,29,14,41,8.10
2013,01,29,14,42,8.10
2013,01,29,14,43,8.10
2013,01,29,14,44,8.10
2013,01,29,14,45,8.00
2013,01,29,14,46,8.00
2013,01,29,14,47,8.00
2013,01,29,14,48,8.00
2013,01,29,14,49,8.00
2013,01,29,14,50,8.00
2013,01,29,14,51,8.10
2013,01,29,14,52,8.10
2013,01,29,14,53,8.10
2013,01,29,14,54,8.10
2013,01,29,14,55,8.10
2013,01,29,14,56,8.10
2013,01,29,14,57,8.10
2013,01,29,14,58,8.10
2013,01,29,14,59,8.10
2013,01,29,15,00,8.00
2013,01,29,15,01,8.00
2013,01,29,15,02,8.00
2013,01,29,15,03,8.10
2013,01,29,15,04,8.10
2013,01,29,15,05,8.10
2013,01,29,15,06,8.10
2013,01,29,15,07,8.10
2013,01,29,15,08,8.10
2013,01,29,15,09,8.10
2013,01,29,15,10,8.10
2013,01,29,15,11,8.10
2013,01,29,15,12,8.10
2013,01,29,15,13,8.20
2013,01,29,15,14,8.20
2013,01,29,15,15,8.20
2013,01,29,15,16,8.20
2013,01,29,15,17,8.20
2013,01,29,15,18,8.20
2013,01,29,15,19,8.20
2013,01,29,15,20,8.20
2013,01,29,15,21,8.20
2013,01,29,15,22,8.20
2013,01,29,15,23,8.20
2013,01,29,15,24,8.20
2013,01,29,15,25,8.20
2013,01,29,15,26,8.20
2013,01,29,15,27,8.10
2013,01,29,15,28,8.10
2013,01,29,15,29,8.10
2013,01,29,15,30,8.10
2013,01,29,15,31,8.10
2013,01,29,15,32,8.10
2013,01,29,15,33,8.10
2013,01,29,15,34,8.10
2013,01,29,15,35,8.10
2013,01,29,15,36,8.10
2013,01,29,15,37,8.10
2013,01,29,15,38,8.10
2013,01,29,15,39,8.10
2013,01,29,15,40,8.10
2013,01,29,15,41,8.10
2013,01,29,15,42,8.10
2013,01,29,15,43,8.10
2013,01,29,15,44,8.10
2013,01,29,15,45,8.10
2013,01,29,15,46,8.10
2013,01,29,15,47,8.10
2013,01,29,15,48,8.10
2013,01,29,15,49,8.10
2013,01,29,15,50,8.10
2013,01,29,15,51,8.10
2013,01,29,15,52,8.10
2013,01,29,15,53,8.10
2013,01,29,15,54,8.10
2013,01,29,15,55,8.10
2013,01,29,15,56,8.10
2013,01,29,15,57,8.10
2013,01,29,15,58,8.10
2013,01,29,15,59,8.10
2013,01,29,16,00,8.10
2013,01,29,16,01,8.10
2013,01,29,16,02,8.10
2013,01,29,16,03,8.10
2013,01,29,16,04,8.10
2013,01,29,16,05,8.10
2013,01,29,16,06,8.10
2013,01,29,16,07,8.00
2013,01,29,16,08,8.00
2013,01,29,16,09,8.00
2013,01,29,16,10,8.00
2013,01,29,16,11,8.00
2013,01,29,16,12,8.00
2013,01,29,16,13,8.00
2013,01,29,16,14,8.00
2013,01,29,16,15,8.00
2013,01,29,16,16,7.90
2013,01,29,16,17,7.90
2013,01,29,16,18,7.90
2013,01,29,16,19,7.90
2013,01,29,16,20,7.90
2013,01,29,16,21,7.90
2013,01,29,16,22,7.90
2013,01,29,16,23,7.90
2013,01,29,16,24,7.90
2013,01,29,16,25,7.90
2013,01,29,16,26,7.90
2013,01,29,16,27,7.90
2013,01,29,16,28,7.90
2013,01,29,16,29,7.90
2013,01,29,16,30,7.90
2013,01,29,16,31,7.80
2013,01,29,16,32,7.80
2013,01,29,16,33,7.80
2013,01,29,16,34,7.80
2013,01,29,16,35,7.80
2013,01,29,16,36,7.80
2013,01,29,16,37,7.80
2013,01,29,16,38,7.80
2013,01,29,16,39,7.80
2013,01,29,16,40,7.80
2013,01,29,16,41,7.80
2013,01,29,16,42,7.80
2013,01,29,16,43,7.80
2013,01,29,16,44,7.80
2013,01,29,16,45,7.80
2013,01,29,16,46,7.80
2013,01,29,16,47,7.80
2013,01,29,16,48,7.80
2013,01,29,16,49,7.80
2013,01,29,16,50,7.80
2013,01,29,16,51,7.80
2013,01,29,16,52,7.80
2013,01,29,16,53,7.80
2013,01,29,16,54,7.80
2013,01,29,16,55,7.80
2013,01,29,16,56,7.80
2013,01,29,16,57,7.80
2013,01,29,16,58,7.80
2013,01,29,16,59,7.80
2013,01,29,17,00,7.80
2013,01,29,17,01,7.80
2013,01,29,17,02,7.80
2013,01,29,17,03,7.80
2013,01,29,17,04,7.80
2013,01,29,17,05,7.80
2013,01,29,17,06,7.80
2013,01,29,17,07,7.80
2013,01,29,17,08,7.80
2013,01,29,17,09,7.80
2013,01,29,17,10,7.80
2013,01,29,17,11,7.80
2013,01,29,17,12,7.80
2013,01,29,17,13,7.80
2013,01,29,17,14,7.80
2013,01,29,17,15,7.80
2013,01,29,17,16,7.80
2013,01,29,17,17,7.80
2013,01,29,17,18,7.80
2013,01,29,17,19,7.80
2013,01,29,17,20,7.80
2013,01,29,17,21,7.80
2013,01,29,17,22,7.80
2013,01,29,17,23,7.80
2013,01,29,17,24,7.80
2013,01,29,17,25,7.80
2013,01,29,17,26,7.80
2013,01,29,17,27,7.80
2013,01,29,17,28,7.80
2013,01,29,17,29,7.80
2013,01,29,17,30,7.80
2013,01,29,17,31,7.80
2013,01,29,17,32,7.80
2013,01,29,17,33,7.80
2013,01,29,17,34,7.80
2013,01,29,17,35,7.80
2013,01,29,17,36,7.80
2013,01,29,17,37,7.80
2013,01,29,17,38,7.80
2013,01,29,17,39,7.80
2013,01,29,17,40,7.80
2013,01,29,17,41,7.80
2013,01,29,17,42,7.80
2013,01,29,17,43,7.80
2013,01,29,17,44,7.70
2013,01,29,17,45,7.70
2013,01,29,17,46,7.70
2013,01,29,17,47,7.70
2013,01,29,17,48,7.70
2013,01,29,17,49,7.70
2013,01,29,17,50,7.70
2013,01,29,17,51,7.70
2013,01,29,17,52,7.70
2013,01,29,17,53,7.70
2013,01,29,17,54,7.70
2013,01,29,17,55,7.70
2013,01,29,17,56,7.70
2013,01,29,17,57,7.70
2013,01,29,17,58,7.70
2013,01,29,17,59,7.70
2013,01,29,18,00,7.70
2013,01,29,18,01,7.70
2013,01,29,18,02,7.70
2013,01,29,18,03,7.70
2013,01,29,18,04,7.70
2013,01,29,18,05,7.70
2013,01,29,18,06,7.70